Change the Weather History Date:

Monday, April 14, 2014

  Actual Average Record
Temperature  
Mean Temperature 39 °F 54 °F  
Max Temperature 48 °F 66 °F 91 °F (2002)
Min Temperature 29 °F 41 °F 23 °F (2008)
Degree Days  
Heating Degree Days 26 12  
Month to date heating degree days 212 195  
Since 1 July heating degree days 5493 5031  
Cooling Degree Days 0 1  
Month to date cooling degree days 9 3  
Year to date cooling degree days 9 5  
Moisture  
Dew Point 23 °F    
Average Humidity 52    
Maximum Humidity 75    
Minimum Humidity 29    
Precipitation  
Precipitation 0.01 in 0.09 in 2.18 in (1999)
Month to date precipitation 0.63 0.98  
Year to date precipitation 2.38 4.90  
Sea Level Pressure  
Sea Level Pressure 30.11 in    
Wind  
Wind Speed 10 mph (North)    
Max Wind Speed 21 mph    
Max Gust Speed 32 mph    
Visibility 8 miles    
Events Snow    
T = Trace of Precipitation, MM = Missing Value Source: NWS Daily Summary

Daily Weather History Graph

Daily Weather History Graph

Search for Another Location

Airport or City:

Trip Planner

Search our weather history database for the weather conditions in past years. The results will help you decide how hot, cold, wet, or windy it might be!

Date:

Astronomy

Apr. 14, 2014 Rise Set
Actual Time 6:51 AM CDT 8:03 PM CDT
Civil Twilight 6:23 AM CDT 8:30 PM CDT
Nautical Twilight 5:50 AM CDT 9:03 PM CDT
Astronomical Twilight 5:16 AM CDT 9:38 PM CDT
Moon 7:43 PM CDT (4/14) 6:23 AM CDT (4/14)
Length of Visible Light 14h 07m
Length of Day
13h 11m
Full, 100% of the Moon is Illuminated
Apr 14
Full
Apr 15
Full
Apr 22
Last Quarter
Apr 29
New
May 6
First Quarter

Hourly Weather History & Observations

Time (CDT) Temp. Windchill Dew Point Humidity Pressure Visibility Wind Dir Wind Speed Gust Speed Precip Events Conditions
12:22 AM 35.1 °F 26.4 °F 30.0 °F 82% 29.94 in 10.0 mi North 12.7 mph 25.3 mph 0.01 in   Overcast
12:47 AM 35.6 °F 26.6 °F 28.4 °F 75% 29.94 in 10.0 mi North 13.8 mph 34.5 mph 0.01 in   Overcast
12:52 AM 35.1 °F 25.2 °F 28.9 °F 78% 29.96 in 10.0 mi North 16.1 mph 28.8 mph 0.01 in   Overcast
1:52 AM 35.1 °F 25.9 °F 27.0 °F 72% 29.94 in 10.0 mi North 13.8 mph 25.3 mph N/A   Mostly Cloudy
2:52 AM 36.0 °F 27.1 °F 26.1 °F 67% 29.97 in 10.0 mi North 13.8 mph 24.2 mph N/A   Overcast
3:52 AM 35.6 °F 26.6 °F 24.8 °F 65% 30.04 in 10.0 mi North 13.8 mph 23.0 mph N/A   Overcast
4:16 AM 35.1 °F 25.9 °F 26.1 °F 70% 30.02 in 4.0 mi North 13.8 mph 27.6 mph 0.00 in Snow Light Snow
4:22 AM 34.0 °F 23.4 °F 26.1 °F 73% 30.02 in 1.8 mi North 17.3 mph 32.2 mph 0.00 in Snow Light Snow
4:29 AM 33.1 °F 22.6 °F 28.0 °F 82% 30.01 in 1.0 mi North 16.1 mph 27.6 mph 0.00 in Snow Light Snow
4:34 AM 32.0 °F 22.1 °F 28.9 °F 88% 30.01 in 0.8 mi North 13.8 mph 27.6 mph 0.00 in Snow Light Snow
4:50 AM 32.0 °F 21.6 °F 28.4 °F 87% 30.03 in 1.0 mi North 15.0 mph 28.8 mph 0.00 in Snow Light Snow
4:52 AM 32.0 °F 21.6 °F 28.0 °F 85% 30.06 in 1.0 mi North 15.0 mph 27.6 mph 0.00 in Snow Light Snow
5:12 AM 32.0 °F 22.5 °F 27.0 °F 82% 30.05 in 2.0 mi North 12.7 mph 24.2 mph 0.01 in Snow Light Snow
5:15 AM 32.0 °F 22.5 °F 26.1 °F 79% 30.05 in 3.0 mi North 12.7 mph 23.0 mph 0.01 in Snow Light Snow
5:27 AM 33.1 °F 22.6 °F 25.0 °F 72% 30.05 in 8.0 mi North 16.1 mph 27.6 mph 0.01 in   Overcast
5:52 AM 33.1 °F 23.0 °F 24.1 °F 70% 30.08 in 10.0 mi North 15.0 mph 27.6 mph 0.01 in   Overcast
6:52 AM 32.0 °F 22.1 °F 23.0 °F 69% 30.14 in 10.0 mi NNW 13.8 mph 24.2 mph N/A   Overcast
7:52 AM 32.0 °F 22.5 °F 21.9 °F 66% 30.17 in 10.0 mi North 12.7 mph 18.4 mph N/A   Overcast
8:52 AM 32.0 °F 22.5 °F 19.9 °F 61% 30.19 in 10.0 mi North 12.7 mph 21.9 mph N/A   Overcast
9:52 AM 32.0 °F 23.6 °F 19.4 °F 60% 30.18 in 10.0 mi North 10.4 mph 19.6 mph N/A   Overcast
10:52 AM 34.0 °F 23.8 °F 19.0 °F 54% 30.24 in 10.0 mi North 16.1 mph 23.0 mph N/A   Overcast
11:52 AM 36.0 °F 26.7 °F 19.0 °F 50% 30.25 in 10.0 mi North 15.0 mph 24.2 mph N/A   Overcast
12:52 PM 39.2 °F 30.5 °F 17.6 °F 42% 30.21 in 10.0 mi NNE 16.1 mph 24.2 mph N/A   Clear
1:52 PM 43.0 °F 34.8 °F 17.1 °F 35% 30.24 in 10.0 mi NNE 18.4 mph 26.5 mph N/A   Clear
2:52 PM 45.0 °F 38.9 °F 17.1 °F 33% 30.22 in 10.0 mi North 12.7 mph 27.6 mph N/A   Clear
3:52 PM 46.9 °F - 18.0 °F 32% 30.21 in 10.0 mi North 12.7 mph 25.3 mph N/A   Clear
4:52 PM 48.0 °F - 17.1 °F 29% 30.19 in 10.0 mi North 12.7 mph - N/A   Clear
5:52 PM 48.0 °F - 18.0 °F 30% 30.18 in 10.0 mi North 9.2 mph 19.6 mph N/A   Partly Cloudy
6:52 PM 46.0 °F 43.1 °F 17.1 °F 31% 30.18 in 10.0 mi NNW 5.8 mph 16.1 mph N/A   Mostly Cloudy
7:52 PM 44.1 °F 42.5 °F 18.0 °F 35% 30.17 in 10.0 mi North 3.5 mph - N/A   Mostly Cloudy
8:52 PM 43.0 °F - 19.9 °F 40% 30.18 in 10.0 mi Calm Calm - N/A   Overcast
9:52 PM 43.0 °F 41.3 °F 24.1 °F 47% 30.20 in 10.0 mi Variable 3.5 mph - N/A   Scattered Clouds
10:52 PM 36.0 °F - 25.0 °F 64% 30.21 in 10.0 mi Calm Calm - N/A   Clear
11:52 PM 35.1 °F 32.2 °F 25.0 °F 67% 30.21 in 10.0 mi NW 3.5 mph - N/A   Clear